welcome: please sign in

Info for "MemberManual"

[Show "Revision History"] [Show "General Page Infos"] [Show "Page hits and edits"]

Revision History

Showing page edit history entries from 1 to 76 out of 76 entries total. (5 | 10 | 25 | 50 | 100 | 200 items per page)

# Date Size Editor Comment Action
76 2014-04-21 22:24:09 2453 to previous ClintonEbadi a year is not really recent view
75 2013-07-20 05:48:25 2630 to previous ClintonEbadi extraneous are view
74 2013-07-10 04:23:41 2634 to previous ClintonEbadi hey, all things default to navajos and mire is only there if you're manually using it, so... view
73 2013-02-09 04:04:04 2815 to previous RobinTempleton bold link to migration guide view
72 2013-02-06 15:10:22 2809 to previous cpe-071-070-253-241 textcha test... view
71 2013-01-13 17:13:31 2810 to previous ClintonEbadi cat view
70 2012-12-31 08:39:31 2785 to previous ClintonEbadi admonish users to migrate view
69 2011-09-18 00:49:19 2429 to previous noway   view
68 2011-08-14 16:23:21 2426 to previous pg Adding page detailing data retention policy upon membership termination. view
67 2010-07-29 13:00:56 2307 to previous AdamChlipala spam view
66 2010-07-28 16:41:26 2370 to previous 119   view
65 2009-11-06 17:39:22 2307 to previous LorenzoVillani Add "web applications" section view
64 2009-02-25 20:49:14 2207 to previous BjörnLindström Spam view
63 2009-02-24 15:22:26 72 to previous 221 http://www.message_dargetviac.com/ view
62 2009-02-07 16:44:44 2207 to previous AdamChlipala No more need for MigrationGuide view
61 2008-12-16 00:33:53 2372 to previous AdamChlipala spam view
60 2008-12-15 18:25:01 195 to previous 213 <a href='http://ezpascal.strefa.pl/sitemap.htm'>map</a> <a href="http://ezpascal.strefa.pl/sitemap.htm">index</a> [link=http://ezpascal.strefa.pl/sitemap.htm]http[/link] view
59 2008-12-15 09:49:18 207 to previous 198 <a href='http://hedewayn.strefa.pl/sitemap.htm'>http</a> <a href="http://hedewayn.strefa.pl/sitemap.htm">top</a> [link=http://hedewayn.strefa.pl/sitemap.htm]index[/link] view
58 2008-12-15 01:37:06 255 to previous 213   view
57 2008-12-15 01:37:01 321 to previous 213   view
56 2008-12-15 01:36:54 274 to previous 213   view
55 2008-12-14 18:19:04 249 to previous 194   view
54 2008-12-14 18:18:57 208 to previous 194 <a href='http://coflemin.interfree.it/sitemap.html'>sitemap</a> <a href="http://coflemin.interfree.it/sitemap.html">map</a> [link=http://coflemin.interfree.it/sitemap.html]top[/link] view
53 2008-12-14 15:49:20 2372 to previous ClintonEbadi Revert to revision 50. view
52 2008-12-14 10:22:42 273 to previous ks363425   view
51 2008-12-14 03:07:35 210 to previous c-71-205-218-25 <a href='http://imvasque.interfree.it/sitemap.html'>site</a> <a href="http://imvasque.interfree.it/sitemap.html">sitemap</a> [link=http://imvasque.interfree.it/sitemap.html]http[/link] view
50 2008-12-13 20:46:20 2372 to previous AdamChlipala spam view
49 2008-12-13 20:04:13 193 to previous 194 <a href='http://timae.strefa.pl/sitemap.html'>http</a> <a href="http://timae.strefa.pl/sitemap.html">sitemap</a> [link=http://timae.strefa.pl/sitemap.html]index[/link] view
48 2008-12-13 17:46:19 2372 to previous RyanMikulovsky spam view
47 2008-12-13 17:44:25 239 to previous RyanMikulovsky Revert to revision 44. view
46 2008-12-13 12:02:40 219 to previous 213   view
45 2008-12-13 02:55:33 312 to previous 213   view
44 2008-12-12 07:16:50 239 to previous 170   view
43 2008-12-11 22:19:03 249 to previous 210   view
42 2008-12-11 15:06:37 2372 to previous AdamChlipala spam view
41 2008-12-11 13:04:35 282 to previous 213   view
40 2008-12-11 13:04:25 271 to previous 213   view
39 2008-12-11 13:04:15 207 to previous 213 <a href='http://imvasque.interfree.it/sitemap.html'>http</a> <a href="http://imvasque.interfree.it/sitemap.html">http</a> [link=http://imvasque.interfree.it/sitemap.html]http[/link] view
38 2008-12-11 00:42:02 2372 to previous ClintonEbadi yep, more spam view
37 2008-12-10 17:27:33 213 to previous PS-US-CA-01 <a href='http://clpatric.strefa.pl/sitemap.html'>http</a> <a href="http://clpatric.strefa.pl/sitemap.html">webmap</a> [link=http://clpatric.strefa.pl/sitemap.html]links[/link] view
36 2008-12-06 13:43:29 2372 to previous AdamChlipala vandalism view
35 2008-12-04 03:59:24 34 to previous nesti drondron view
34 2008-07-15 17:29:15 2372 to previous AdamChlipala Backups view
33 2008-07-07 04:28:16 2268 to previous localhost converted to 1.6 markup view
32 2008-06-15 21:57:23 2252 to previous AdamChlipala Expand on description of Email content view
31 2008-06-15 13:18:09 2202 to previous AdamChlipala GettingHelp view
30 2008-04-22 02:29:54 2065 to previous MichaelOlson Add separators view
29 2008-04-22 02:27:41 2067 to previous MichaelOlson Add PayingDues page in bold letters view
28 2008-04-22 02:20:55 1927 to previous MichaelOlson   view
27 2008-04-19 19:58:20 1912 to previous ClintonEbadi   view
26 2008-04-19 19:57:49 1914 to previous ClintonEbadi Add Jabber to member manual view
25 2007-11-14 15:08:00 1846 to previous MichaelOlson   view
24 2007-11-14 15:06:28 1835 to previous MichaelOlson Add link to FAQ view
23 2007-11-12 05:32:28 1732 to previous MichaelOlson   view
22 2007-11-12 05:30:41 1717 to previous MichaelOlson Add GettingDomain subpage view
21 2007-11-12 03:49:23 1605 to previous RyanMikulovsky to run command -> to run commands view
20 2007-11-12 03:06:57 1604 to previous MichaelOlson Remove "in progress" line. We're almost ready! Add ShellAccess subpage view
19 2007-11-11 21:14:54 1779 to previous RyanMikulovsky add a possibly missing wiki page view
18 2007-11-11 20:03:01 1755 to previous RyanMikulovsky serving websites is pretty important, so moved it up. Databases too. view
17 2007-11-06 06:01:48 1755 to previous RyanMikulovsky transfer to and from, not just to. view
16 2007-11-01 19:53:15 1746 to previous MichaelOlson Update Email link view
15 2007-10-28 01:58:00 1763 to previous MichaelOlson Merge CustomDaemons with RunningUnattendedCommands view
14 2007-10-28 00:30:54 1887 to previous MichaelOlson fix typo in page name view
13 2007-10-28 00:30:11 1886 to previous MichaelOlson Add RunningUnattendedCommands view
12 2007-10-26 14:56:13 1658 to previous MichaelOlson Add databases subpage view
11 2007-10-26 12:22:41 1599 to previous AdamChlipala SQL databases view
10 2007-10-25 15:52:30 1579 to previous MichaelOlson Classify two links at bottom. Add section for pages that should be somewhere in manual. view
9 2007-10-25 11:34:40 1570 to previous AdamChlipala New member pages view
8 2007-10-25 04:42:05 1343 to previous MichaelOlson Add MigrationGuide link view
7 2007-10-25 01:41:50 1208 to previous MichaelOlson Remove title. It didn't look as good as I thought it would. view
6 2007-10-25 01:41:06 1237 to previous MichaelOlson Finish migrating content to subpages view
5 2007-10-25 00:21:23 1560 to previous MichaelOlson Make fancy table of contents and begin making subpages view
4 2007-10-24 23:08:54 2674 to previous MichaelOlson Turn section numbers off view
3 2007-10-20 19:08:03 2643 to previous MichaelOlson Flesh out view
2 2007-10-20 18:35:44 813 to previous MichaelOlson   view
1 2007-10-20 18:35:06 821 MichaelOlson Minimal start view